Regional Weather Roundup
Issued by NWS

Home | Current Version | Previous Version | Graphics & Text | Print | Product List | Glossary On
Versions: 1 2 3 4 5 6 7 8 9 10 11 12 13 14 15 16 17 18 19 20 21 22 23 24 25 26 27 28 29 30 31 32 33 34 35 36 37 38 39 40 41 42 43 44 45 46 47 48 49 50
000
ASUS45 KSLC 232310
RWRUT

UTAH REGIONAL WEATHER ROUNDUP
NATIONAL WEATHER SERVICE SALT LAKE CITY UT
400 PM MST TUE JAN 23 2018

UTZ001>011-023>025-240000-

NORTHERN UTAH

CITY           SKY/WX    TMP DP  RH WIND       PRES   REMARKS
BRIGHAM CITY   CLOUDY    36  23  59 SW3       30.33F
DUGWAY         MOSUNNY   38  23  54 S5        30.31F WCI  35
HILL AFB       PTSUNNY   35  22  59 SW5       30.31S WCI  31
LOGAN          CLOUDY    32  24  72 W5        30.32F WCI  27
OGDEN          CLOUDY    39  21  48 SE7       30.31F WCI  34
SALT LAKE CITY MOSUNNY   44  26  49 CALM      30.32F
TOOELE VALLEY  SUNNY     32  27  80 CALM      30.33S
WENDOVER       SUNNY     34  22  61 E5        30.32F WCI  30
HEBER CITY       N/A     32  21  64 CALM      30.28F
WEST JORDAN    SUNNY     34  24  65 S9        30.32F WCI  27

$$

UTZ011>015-024>027-240000-

CENTRAL/NORTHEAST UTAH

CITY           SKY/WX    TMP DP  RH WIND       PRES   REMARKS
PROVO AIRPORT  SUNNY     33  21  61 W3        30.34F
MOAB/CANYONLAN SUNNY     40  21  46 CALM      30.32S
DELTA          SUNNY     28  21  74 SE3       30.32F
PRICE          SUNNY     34  17  50 CALM      30.31R
ROOSEVELT      SUNNY     32  14  47 SE5       30.37R WCI  27
VERNAL         SUNNY     29  14  53 CALM      30.36R

$$

UTZ013>016-019>022-027-240000-

SOUTHERN UTAH

CITY           SKY/WX    TMP DP  RH WIND       PRES   REMARKS
BRYCE CANYON   SUNNY     37  12  35 CALM      30.28R
CEDAR CITY     SUNNY     38  21  50 CALM      30.26F
MILFORD        SUNNY     28  18  66 NE6       30.30S WCI  22
ST GEORGE      CLEAR     51  23  33 CALM      30.27F
HANKSVILLE     SUNNY     43  16  33 CALM      30.35S
BLANDING         N/A     40  16  38 S3        30.35S

$$

REGIONAL REPORTS     COLORADO/ARIZONA

CITY           SKY/WX    TMP DP  RH WIND       PRES   REMARKS
CRAIG, CO      SUNNY     25  14  63 CALM      30.32R
GRAND JUNCTION SUNNY     34  23  64 NE5       30.34R WCI  30
RIFLE, CO      SUNNY     37  18  46 W7        30.32R WCI  32
MONTROSE, CO   SUNNY     37  11  34 NW7       30.32S WCI  32
CORTEZ, CO     SUNNY     38  19  46 SW6       30.27R WCI  33
COLORADO CITY    N/A     54  16  22 CALM      30.29S
PAGE, AZ       SUNNY     46  15  28 NE3       30.30S
GRAND CANYON   SUNNY     40  14  34 NE12      30.28R WCI  33
KINGMAN, AZ    SUNNY    N/A N/A N/A NE12      30.21S
FLAGSTAFF, AZ  SUNNY     36  11  35 E12       30.26R WCI  28

$$

REGIONAL REPORTS    NEVADA/IDAHO/WYOMING

CITY           SKY/WX    TMP DP  RH WIND       PRES   REMARKS
LAS VEGAS, NV  MOSUNNY   60  25  26 NE8       30.23F
ELY, NY        SUNNY     34  24  67 S7        30.26S WCI  28
ELKO, NV       MOSUNNY   45  14  28 CALM      30.22F
POCATELLO, ID  MOSUNNY   37  24  59 S17       30.29R WCI  27
BURLEY, ID     MOSUNNY   42  26  53 N8        30.24S
FORT BRIDGER,    N/A     30  19  65 W14       30.29S WCI  19
EVANSTON, WY   PTSUNNY   28  20  71 SW8       30.25F WCI  20
ROCK SPRINGS,  SUNNY     25  17  72 SW8       30.26R WCI  16

$$



USA.gov is the U.S. government's official web portal to all federal, state and local government web resources and services.